Погода в Бетьках

Россия / Республика Татарстан     55°40′30″N   52°08′23″E
темп.,
°C
ветер,
м/с
пор.,
м/с
влажн.,
%
обл.,
%
осадки,
мм/ч
давл.,
гПа
погр.,
м
16 июня, ср
ср1600:00+18вюв229026 0.0 101330
03:00+17в349114 0.1 101255
06:00+21вюв4108118 0.0 1011303
09:00+25вюв366287 0.0 1009392
12:00+29ююв68484 0.0 10081301
15:00+27ююз696578 0.4 10071435
18:00+23юз497575 0.3 1006602
21:00+19ююз38890 0.8 1007145
17 июня, чт
чт1700:00+18юз4119497 1.0 1006232
03:00+17сз379794 1.0 1007278
06:00+16ссз61088100 0.0 1010688
09:00+19с810580 0.0 1012973
12:00+21ссз79460 0.0 10131746
15:00+21ссз69492 0.0 10142225
18:00+18ссз6116077 0.0 1015600
21:00+13сз377192 0.0 1017120
18 июня, пт
пт1800:00+12ссз411745 0.0 1019361
03:00+10ссз512805 0.0 1021400
06:00+12с58770 0.0 1022505
09:00+17с56583 0.0 10231184
12:00+20с46475 0.0 10242020
15:00+21ссз464414 0.0 10242128
18:00+19зсз466527 0.0 1023279
21:00+13сз3777100 0.0 1025121
19 июня, сб
сб1900:00+12зсз2475100 0.0 102562
03:00+11зюз227771 0.0 102520
06:00+15зюз4770100 0.0 1025236
09:00+20з576389 0.0 1024630
12:00+24з795733 0.0 10231398
15:00+25з69583 0.0 10211709
18:00+24зсз48700 0.1 1020364
21:00+19з34840 0.1 102150
20 июня, вс
вс2000:00+18з39900 0.0 1021157
03:00+16зсз37910 0.0 1021111
06:00+20зсз47773 0.0 1022243
09:00+25сз46610 0.0 1022605
12:00+28зсз56480 0.0 10211630
15:00+29зсз56500 0.0 10201888
18:00+26зсз48690 0.0 1021295
21:00+21зсз23780 0.0 102132